Retour au catalogue

DELTA 1 DEB

ActifLEO
NORAD 7174·DEBRIS·🇺🇸 United States

Lancé Nov 6, 1973 depuis Vandenberg Space Force Base

Loading…

Prochains Passages (prochaines 24 heures)

TLE

VieillissantSource: Space-Track

Époque: Sep 12, 2026, 08:58 UTC

1 07174U 73086EL  26255.37371707 -.00000384  00000-0 -33333-2 0  9992
2 07174 102.0872 301.5954 0296584   5.9406   6.4617 12.08900441341962

Suivez DELTA 1 DEB en temps réel avec AllMySat

Download on the App Store